TimeCDT,TemperatureF,Dew PointF,Humidity,Sea Level PressureIn,VisibilityMPH,Wind Direction,Wind SpeedMPH,Gust SpeedMPH,PrecipitationIn,Events,Conditions,WindDirDegrees,DateUTC
12:15 AM,71.6,68.9,91,29.99,10.0,Calm,Calm,-,N/A,,Clear,0,2013-09-08 05:15:00
12:35 AM,71.2,68.5,91,29.98,10.0,North,3.5,-,N/A,,Clear,360,2013-09-08 05:35:00
12:55 AM,71.2,68.5,91,29.98,10.0,Calm,Calm,-,N/A,,Clear,0,2013-09-08 05:55:00
1:15 AM,71.2,68.5,91,29.97,10.0,Calm,Calm,-,N/A,,Clear,0,2013-09-08 06:15:00
1:35 AM,71.1,68.4,91,29.97,10.0,Calm,Calm,-,N/A,,Clear,0,2013-09-08 06:35:00
1:55 AM,71.1,68.4,91,29.97,3.0,NNE,3.5,-,N/A,,Clear,30,2013-09-08 06:55:00
2:15 AM,71.2,68.4,91,29.97,10.0,Calm,Calm,-,N/A,,Clear,0,2013-09-08 07:15:00
2:35 AM,70.7,68.0,91,29.96,10.0,Calm,Calm,-,N/A,,Clear,0,2013-09-08 07:35:00
2:55 AM,71.1,68.4,91,29.95,10.0,Calm,Calm,-,N/A,,Clear,0,2013-09-08 07:55:00
3:15 AM,70.9,68.2,91,29.95,10.0,Calm,Calm,-,N/A,,Clear,0,2013-09-08 08:15:00
3:35 AM,71.2,68.5,91,29.95,10.0,Calm,Calm,-,N/A,,Clear,0,2013-09-08 08:35:00
3:55 AM,71.2,68.5,91,29.95,10.0,Calm,Calm,-,N/A,,Clear,0,2013-09-08 08:55:00
4:15 AM,71.2,68.5,91,29.95,10.0,Calm,Calm,-,N/A,,Clear,0,2013-09-08 09:15:00
4:35 AM,70.7,68.2,92,29.95,7.0,Calm,Calm,-,N/A,,Clear,0,2013-09-08 09:35:00
4:55 AM,70.2,67.8,92,29.95,7.0,Calm,Calm,-,N/A,,Clear,0,2013-09-08 09:55:00
5:15 AM,70.7,68.0,91,29.95,7.0,Calm,Calm,-,N/A,,Clear,0,2013-09-08 10:15:00
5:35 AM,71.1,68.5,92,29.95,10.0,North,3.5,-,N/A,,Clear,360,2013-09-08 10:35:00
5:50 AM,71.6,69.8,94,29.95,7.0,North,6.9,-,N/A,,Scattered Clouds,10,2013-09-08 10:50:00
5:55 AM,71.2,68.9,92,29.95,10.0,NNE,4.6,-,N/A,,Scattered Clouds,20,2013-09-08 10:55:00
7:50 AM,75.2,73.4,94,30.00,4.0,Calm,Calm,-,N/A,,Mostly Cloudy,0,2013-09-08 12:50:00
8:48 AM,78.8,73.4,83,30.01,5.0,NNE,4.6,-,N/A,,Scattered Clouds,30,2013-09-08 13:48:00
9:50 AM,84.2,75.2,74,30.01,5.0,NNE,5.8,-,N/A,,Scattered Clouds,20,2013-09-08 14:50:00
10:50 AM,87.8,73.4,62,30.01,7.0,NE,9.2,-,N/A,,Scattered Clouds,50,2013-09-08 15:50:00
11:50 AM,87.8,73.4,62,29.98,7.0,ENE,9.2,-,N/A,,Mostly Cloudy,70,2013-09-08 16:50:00
12:50 PM,89.6,69.8,52,29.99,7.0,East,11.5,-,N/A,,Scattered Clouds,90,2013-09-08 17:50:00
1:50 PM,77.0,71.6,83,29.98,5.0,SW,11.5,-,N/A,,Scattered Clouds,230,2013-09-08 18:50:00
2:53 PM,73.4,66.2,78,29.97,6.0,SW,11.5,-,N/A,,Scattered Clouds,220,2013-09-08 19:53:00
3:51 PM,87.8,71.6,58,29.96,7.0,SSW,6.9,-,N/A,,Scattered Clouds,200,2013-09-08 20:51:00
4:51 PM,84.2,73.4,70,29.95,7.0,SSE,6.9,-,N/A,,Scattered Clouds,150,2013-09-08 21:51:00
5:49 PM,82.4,73.4,74,29.95,7.0,North,6.9,-,N/A,,Scattered Clouds,360,2013-09-08 22:49:00
6:49 PM,80.6,71.6,74,29.96,7.0,North,9.2,-,N/A,,Scattered Clouds,350,2013-09-08 23:49:00
7:15 PM,79.5,72.3,79,29.96,7.0,SW,4.6,-,N/A,,Mostly Cloudy,220,2013-09-09 00:15:00
7:35 PM,78.4,71.8,80,29.96,10.0,Calm,Calm,-,N/A,,Mostly Cloudy,0,2013-09-09 00:35:00
7:55 PM,77.9,72.0,82,29.97,7.0,Calm,Calm,-,N/A,Thunderstorm,Thunderstorm,0,2013-09-09 00:55:00
8:15 PM,77.4,70.7,80,29.97,10.0,WNW,3.5,-,N/A,,Mostly Cloudy,290,2013-09-09 01:15:00
8:35 PM,76.6,70.7,82,29.97,7.0,NW,3.5,-,N/A,,Scattered Clouds,310,2013-09-09 01:35:00
8:55 PM,76.3,70.7,83,29.97,10.0,North,3.5,-,N/A,,Clear,350,2013-09-09 01:55:00
9:15 PM,75.2,70.9,86,29.97,10.0,Calm,Calm,-,N/A,,Scattered Clouds,0,2013-09-09 02:15:00
9:35 PM,74.5,70.2,86,29.97,10.0,Calm,Calm,-,N/A,,Scattered Clouds,0,2013-09-09 02:35:00
9:55 PM,74.3,70.7,88,29.98,7.0,Calm,Calm,-,N/A,,Clear,0,2013-09-09 02:55:00
10:15 PM,74.3,70.7,88,29.98,7.0,Calm,Calm,-,N/A,,Clear,0,2013-09-09 03:15:00
10:35 PM,73.8,70.5,90,29.98,7.0,Calm,Calm,-,N/A,,Clear,0,2013-09-09 03:35:00
10:55 PM,73.6,70.5,90,29.98,7.0,Calm,Calm,-,N/A,,Clear,0,2013-09-09 03:55:00
11:15 PM,73.0,70.0,90,29.98,7.0,Calm,Calm,-,N/A,,Clear,0,2013-09-09 04:15:00
11:35 PM,72.7,69.8,91,29.98,4.0,Calm,Calm,-,N/A,,Clear,0,2013-09-09 04:35:00
11:55 PM,72.7,69.6,90,29.97,5.0,Calm,Calm,-,N/A,,Clear,0,2013-09-09 04:55:00